Home   Weather   Lindau (Bodensee)   Past weeks

Flag for Germany Past Weather in Lindau (Bodensee), Bavaria, Germany — Yesterday and Last 2 Weeks

Now
36 °F

Fog.


Feels Like: 36 °F
Forecast: 28 / 50 °F
Wind: 1 mph from South

Location: Bregenz

Current Time: Apr 28, 2017 at 4:05:40 pm

Latest Report: Apr 28, 2017 at 3:00 pm


Visibility: N/A

Pressure: 30.05 "Hg

Humidity: 90%

Dew Point: 33 °F

Location of Lindau (Bodensee)Location

Past Weather in Lindau (Bodensee) — Graph

°F

Lindau (Bodensee) Temperature Yesterday

Maximum temperature yesterday: 41 °F (at 2:00 pm)
Minimum temperature yesterday: 36 °F (at 11:00 pm)
Average temperature yesterday: 39 °F

High & Low Weather Summary for the Past Weeks

 TemperatureHumidityPressure
High65 °F (Apr 13, 6:00 pm)97% (Apr 19, 3:00 am)30.58 "Hg (Apr 19, 3:00 am)
Low29 °F (Apr 20, 6:00 am)13% (Apr 21, 6:00 pm)29.74 "Hg (Apr 26, 1:00 am)
Average44 °F75%30.14 "Hg
* Reported Apr 13 2:00 pm — Apr 28 2:00 pm, Lindau (Bodensee), Weather by CustomWeather, © 2017

Note: Actual official high and low records may vary slightly from our data, if they occured in-between our weather recording intervals... More about our weather records

Advertising

Lindau (Bodensee) Weather History for the Previous 24 Hours

Scroll right to see more
 ConditionsComfort  
Time TempWeatherWind HumidityBarometerVisibility
2:00 pm
Fri, Apr 28
36 °FChilly.1 mph91%30.03 "HgN/A
1:00 pm35 °FFog.1 mph92%30.00 "HgN/A
12:00 pm34 °FFog.1 mph93%29.98 "HgN/A
11:00 am34 °FSnow. Low clouds.No wind96%29.96 "Hg1 mi
10:00 am33 °FFog.No wind97%29.95 "HgN/A
9:00 am33 °FFog.1 mph97%29.94 "HgN/A
8:00 am33 °FChilly.No wind96%29.93 "HgN/A
7:00 am33 °FFog.No wind96%29.92 "HgN/A
6:00 am33 °FFog.1 mph96%29.91 "HgN/A
5:00 am33 °FChilly.No wind96%29.91 "HgN/A
4:00 am33 °FFog.1 mph96%29.92 "HgN/A
3:00 am33 °FFog.No wind96%29.93 "HgN/A
2:00 am34 °FChilly.No wind95%29.93 "HgN/A
1:00 am34 °FFog.1 mph96%29.95 "HgN/A
12:00 am35 °FFog.1 mph95%29.96 "HgN/A
11:00 pm
Thu, Apr 27
36 °FChilly.1 mph94%29.97 "HgN/A
10:00 pm36 °FFog.1 mph94%29.98 "HgN/A
9:00 pm37 °FFog.3 mph92%29.97 "HgN/A
8:00 pm38 °FChilly.3 mph90%29.96 "HgN/A
7:00 pm40 °FFog.3 mph88%29.96 "HgN/A
6:00 pm40 °FFog.2 mph88%29.96 "HgN/A
5:00 pm41 °FQuite cool.2 mph86%29.98 "HgN/A
4:00 pm41 °FFog.2 mph84%29.98 "HgN/A
Weather by CustomWeather, © 2017

See weather overviewHow to use our weather pages